Regional Weather Roundup
Issued by NWS

Home | Current Version | Previous Version | Text Only | Print | Product List | Glossary Off
Versions: 1 2 3 4 5 6 7 8 9 10 11 12 13 14 15 16 17 18 19 20 21 22 23 24 25 26 27

000
ASUS45 KSLC 240510
RWRUT

UTAH REGIONAL WEATHER ROUNDUP
NATIONAL WEATHER SERVICE SALT LAKE CITY UT
1100 PM MDT THU MAR 23 2017

UTZ001>011-023>025-240600-

NORTHERN UTAH

CITY           SKY/WX    TMP DP  RH WIND       PRES   REMARKS
BRIGHAM CITY     N/A     39  37  89 CALM      30.08R
HILL AFB       CLEAR     36  34  90 SE5       30.07R WCI  32
LOGAN          CLOUDY    42  38  85 CALM      30.06R
OGDEN          CLEAR     34  33  96 SE5       30.07R WCI  30
SALT LAKE CITY CLEAR     38  35  89 CALM      30.07R
WENDOVER       CLEAR     49  22  34 NW14      30.09R
HEBER CITY     CLOUDY    37  32  81 CALM      30.02R

$$

UTZ011>015-024>027-240600-

CENTRAL/NORTHEAST UTAH

CITY           SKY/WX    TMP DP  RH WIND       PRES   REMARKS
PROVO AIRPORT  PTCLDY    41  34  76 VRB5      30.07R
MOAB/CANYONLAN MOCLDY    45  33  63 W10       29.85R
DELTA          CLEAR     34  32  93 S8        30.10R WCI  27
PRICE          PTCLDY    41  29  62 NW21G33   29.92R
ROOSEVELT      CLOUDY    43  32  65 SW7       29.91R
VERNAL         CLOUDY    45  30  55 NE8       29.89R

$$

UTZ013>016-019>022-027-240600-

SOUTHERN UTAH

CITY           SKY/WX    TMP DP  RH WIND       PRES   REMARKS
BRYCE CANYON   CLOUDY    31  25  78 NW22G28   30.08R WCI  18
CEDAR CITY     CLEAR     34  27  75 CALM      30.12R
MILFORD        CLEAR    N/A N/A N/A S5        30.12R
ST GEORGE      PTCLDY    49  41  74 S5        30.09R
HANKSVILLE     PTCLDY    43  32  65 W9        29.94R
KANAB          CLEAR     39  32  75 S8        30.12R WCI  34
BLANDING       MOCLDY    42  30  63 NW16G24   29.92R

$$

REGIONAL REPORTS     COLORADO/ARIZONA

CITY           SKY/WX    TMP DP  RH WIND       PRES   REMARKS
CRAIG, CO      CLOUDY    39  35  86 W10       29.86R WCI  32
GRAND JUNCTION CLOUDY    45  39  79 N7        29.83R
RIFLE, CO      CLOUDY    44  37  76 NW13      29.82R
MONTROSE, CO   CLOUDY    41  38  89 NW7       29.82S
CORTEZ, CO     LGT RAIN  38  36  92 W8        29.85S WCI  32
COLORADO CITY    N/A     41  34  75 W3        30.13R
PAGE, AZ       MOCLDY    50  32  50 W13G25    29.97R
GRAND CANYON   PTCLDY    31  31 100 CALM      30.11R
KINGMAN, AZ    CLEAR     45  29  53 CALM      30.09R
FLAGSTAFF, AZ  CLEAR     33  29  85 NW9       30.08R WCI  25

$$

REGIONAL REPORTS    NEVADA/IDAHO/WYOMING

CITY           SKY/WX    TMP DP  RH WIND       PRES   REMARKS
LAS VEGAS, NV  PTCLDY    61  34  36 N8        30.04R
ELY, NY        CLEAR     32  22  66 W8        30.16R WCI  25
ELKO, NV       CLEAR     35  28  75 SW3       30.12R
POCATELLO, ID  CLOUDY    42  25  50 SW18      30.08R
BURLEY, ID     CLEAR     38  26  62 SW8       30.08R WCI  32
FORT BRIDGER,  CLOUDY    36  35  99 W10       30.03R WCI  28
EVANSTON, WY   CLOUDY    30  25  81 W5        30.03R WCI  25
ROCK SPRINGS,  CLOUDY    37  30  75 NE12      29.99R WCI  29
KEMMERER, WY     N/A     32  28  86 W14       30.00R WCI  22

$$




USA.gov is the U.S. government's official web portal to all federal, state and local government web resources and services.